Flag for Switzerland Weather past 2 weeks in Biel, Switzerland

Now
48 °F

Cool.


Feels Like: 43 °F
Forecast: 36 / 67 °F
Wind: 10 mph from Southwest

Location: Grenchen


UV Index: 3 (Moderate)

Visibility: N/A


Pressure: 29.68 "Hg

Humidity: 95%

Dew point: 47 °F

Location of BielLocation

Historic Weather in Biel

°F

Biel temperature yesterday

Maximum temperature yesterday: 64 °F (at 6:00 PM)
Minimum temperature yesterday: 39 °F (at 7:00 AM)
Average temperature yesterday: 50 °F

Past Weeks' High & Low Weather Summary

 TemperatureHumidityPressure
High69 °F (Apr 11, 6:00 PM)99% (Apr 7, 6:00 AM)30.37 "Hg (Apr 7, 6:00 AM)
Low31 °F (Apr 16, 7:00 AM)27% (Apr 16, 4:00 PM)29.60 "Hg (Apr 20, 6:00 PM)
Average50 °F67%30.08 "Hg
* Reported Apr 6 5:00 AM — Apr 21 5:00 AM, Biel, Weather by CustomWeather, © 2014

Note: Actual official high and low records may vary slightly from our data, if they occured in-between our weather recording intervals... More about our weather records

Advertising

Historic Weather Conditions — Data for Previous 24 hours

 ConditionsComfort  
Time TempWeatherWind HumidityBarometerVisibility
5:00 AM
Apr 21
49 °FCool.9 mph94%29.67 "HgN/A
4:00 AM50 °FCool.7 mph78%29.67 "HgN/A
3:00 AM50 °FCool.2 mph81%29.66 "HgN/A
2:00 AM48 °FCool.2 mph89%29.68 "HgN/A
1:00 AM49 °FCool.No wind83%29.69 "HgN/A
12:00 AM51 °FCool.2 mph80%29.68 "HgN/A
11:00 PM
Apr 20
52 °FCool.5 mph76%29.68 "HgN/A
10:00 PM52 °FCool.3 mph75%29.67 "HgN/A
9:00 PM52 °FCool.6 mph73%29.66 "HgN/A
8:00 PM56 °FCool.9 mph62%29.63 "HgN/A
7:00 PM60 °FRefreshingly cool.5 mph53%29.61 "HgN/A
6:00 PM64 °FMild.3 mph44%29.60 "HgN/A
5:00 PM64 °FMild.3 mph37%29.61 "HgN/A
4:00 PM63 °FMild.2 mph45%29.62 "HgN/A
3:00 PM60 °FRefreshingly cool.1 mph48%29.65 "HgN/A
2:00 PM58 °FRefreshingly cool.1 mph45%29.67 "HgN/A
1:00 PM55 °FRefreshingly cool.2 mph50%29.70 "HgN/A
12:00 PM52 °FCool.2 mph63%29.72 "HgN/A
11:00 AM49 °FCool.5 mph66%29.74 "HgN/A
10:00 AM46 °FCool.3 mph82%29.76 "HgN/A
9:00 AM42 °FQuite cool.2 mph92%29.78 "HgN/A
8:00 AM41 °FQuite cool.1 mph92%29.79 "HgN/A
7:00 AM39 °FChilly.3 mph97%29.79 "HgN/A
Weather by CustomWeather, © 2014

See weather overview